• Join FlightAware (Why Join?)
  • Login
  • US Flag GB Flag 
08:48 EDT


 

Airport Tracker/Info


-or-


 

Live Flight TrackerFlight Track Log ✈ RPA3228 ✈ 18-Jul-2013 ✈ KBNA - KDCA

Flight Track Log - Related Links

Times and Time Zones

All times are in EDT time to prevent confusion due to time zone crossing. See the RPA3228 flight status page for this flight to view local times or setup timezone preferences in your user account.

Time Position Orientation Groundspeed Altitude Reporting Facility
EDT Latitude Longitude Course Direction KTS MPH feet Rate Location/Type
07:41 36.1333 -86.7000 64° Northeast 160 184 1,500  Level Nashville TRACON
07:41 36.1500 -86.7500 292° West 214 246 3,100 2,520 Climbing Nashville TRACON
07:42 36.1000 -86.8000 219° Southwest 260 299 6,300 3,000 Climbing Nashville TRACON
07:43 36.1633 -86.2836 76° East  Level FlightAware Approximate
07:44 36.1871 -86.1572 80° East  Level FlightAware Approximate
07:44 36.0333 -86.7558 152° Southeast 202 232 10,200  Level Memphis Center
07:45 36.2136 -86.0328 64° Northeast  Level FlightAware Approximate
07:45 36.0597 -86.6622 71° East 206 237 12,300  Level Memphis Center
07:46 36.2601 -85.9165 64° Northeast  Level FlightAware Approximate
07:46 36.0836 -86.5558 74° East 258 297 14,800  Level Memphis Center
07:47 36.1094 -86.4469 74° East 318 366 16,700 1,860 Climbing Memphis Center
07:48 36.1372 -86.3375 73° East 332 382 18,600 1,860 Climbing Memphis Center
07:49 36.1647 -86.2231 73° East 342 394 20,500 1,800 Climbing Memphis Center
07:50 36.1939 -86.1033 73° East 352 405 22,200 1,200 Climbing Memphis Center
07:51 36.2303 -86.0036 66° East 352 405 23,000 720 Climbing Memphis Center
07:52 36.3042 -85.8369 61° Northeast 376 433 24,100 1,020 Climbing Indianapolis Center
07:53 36.3669 -85.7036 60° Northeast 386 444 25,600 1,380 Climbing Indianapolis Center
07:54 36.4228 -85.5861 59° Northeast 393 452 27,000 660 Climbing Indianapolis Center
07:55 36.4794 -85.4672 59° Northeast 397 457 27,000  Level Indianapolis Center
07:56 36.5358 -85.3467 60° Northeast 400 460 27,000  Level Indianapolis Center
07:57 36.5922 -85.2269 60° Northeast 399 459 27,000  Level Indianapolis Center
07:58 36.6392 -85.1017 65° Northeast 398 458 27,000 240 Level Indianapolis Center
07:59 36.6775 -84.9714 70° East 399 459 27,500 1,020 Climbing Indianapolis Center
08:00 36.7186 -84.8406 69° East 405 466 29,200 1,800 Climbing Indianapolis Center
08:01 36.7669 -84.6817 69° East 407 468 31,300 1,800 Climbing Indianapolis Center
08:03 36.8072 -84.5494 69° East 407 468 33,000 780 Climbing Indianapolis Center
08:04 36.8436 -84.4306 69° East 401 461 33,000  Level Indianapolis Center
08:05 36.8814 -84.3017 70° East 397 457 33,000  Level Indianapolis Center
08:06 36.9275 -84.1497 69° East 401 461 33,000  Level Indianapolis Center
08:07 36.9667 -84.0181 70° East 404 465 33,000  Level Indianapolis Center
08:08 37.0061 -83.8861 69° East 404 465 33,000  Level Indianapolis Center
08:09 37.0461 -83.7544 69° East 406 467 33,000  Level Indianapolis Center
08:10 37.0839 -83.6214 70° East 404 465 33,000  Level Indianapolis Center
08:11 37.1233 -83.4886 70° East 405 466 33,000  Level Indianapolis Center
08:12 37.1617 -83.3558 70° East 403 464 33,000  Level Indianapolis Center
08:13 37.2000 -83.2244 70° East 399 459 33,000  Level Indianapolis Center
08:14 37.2378 -83.0911 70° East 401 461 33,000  Level Indianapolis Center
08:15 37.2822 -82.9350 70° East 403 464 33,000  Level Indianapolis Center
08:16 37.3208 -82.8011 70° East 404 465 33,000  Level Indianapolis Center
08:17 37.3578 -82.6678 71° East 402 463 33,000  Level Indianapolis Center
08:18 37.3964 -82.5342 70° East 403 464 33,000  Level Indianapolis Center
08:19 37.4333 -82.4019 71° East 400 460 33,000  Level Indianapolis Center
08:20 37.4697 -82.2669 71° East 406 467 33,000  Level Indianapolis Center
08:21 37.5072 -82.1328 71° East 406 467 33,000  Level Indianapolis Center
08:22 37.5447 -81.9981 71° East 407 468 33,000  Level Indianapolis Center
08:23 37.5886 -81.8397 71° East 408 470 33,000  Level Indianapolis Center
08:24 37.6247 -81.7031 72° East 411 473 33,000  Level Indianapolis Center
08:25 37.6619 -81.5672 71° East 409 471 33,000  Level Indianapolis Center
08:26 37.6981 -81.4356 71° East 408 470 33,000  Level Indianapolis Center
08:27 37.7342 -81.3022 71° East 412 474 33,000  Level Indianapolis Center
08:28 37.7758 -81.1428 72° East 411 473 33,000  Level Indianapolis Center
08:29 37.8197 -81.0158 66° East 415 478 33,000  Level Indianapolis Center
08:30 37.8656 -80.8839 66° East 413 475 33,000  Level Indianapolis Center
08:31 37.9122 -80.7519 66° East 413 475 33,000  Level Indianapolis Center
08:32 37.9681 -80.5939 66° East 412 474 33,000  Level Indianapolis Center
08:33 38.0039 -80.5014 64° Northeast 407 468 33,000  Level Washington Center
08:34 38.0511 -80.3700 65° Northeast 407 468 33,000  Level Washington Center
08:35 38.0958 -80.2358 67° East 407 468 33,000  Level Washington Center
08:36 38.1400 -80.1169 65° Northeast 407 468 33,000  Level Washington Center
08:37 38.1867 -79.9878 65° Northeast 407 468 33,000  Level Washington Center
08:38 38.2353 -79.8531 65° Northeast 407 468 33,000  Level Washington Center
08:39 38.2817 -79.7183 66° East 407 468 33,000  Level Washington Center
08:40 38.3325 -79.5700 66° East 412 474 33,000  Level Washington Center
08:41 38.3786 -79.4375 66° East 412 474 33,000 -840 Level Washington Center
08:42 38.4225 -79.3047 67° East 407 468 31,400 -1,740 Descending Washington Center
08:43 38.4519 -79.1575 76° East 412 474 29,600 -1,800 Descending Washington Center
08:44 38.4769 -79.0131 77° East 412 474 27,800 -1,920 Descending Washington Center
08:45 38.4994 -78.8814 78° East 418 481 25,900 -1,920 Descending Washington Center
08:46 38.5178 -78.7361 81° East 418 481 24,100 -1,740 Descending Washington Center
08:47 38.5403 -78.5939 79° East 413 475 22,500 -1,440 Descending Washington Center
08:48 38.5622 -78.4592 78° East 402 463 21,200 -1,380 Descending Washington Center
08:49 38.5822 -78.3272 79° East 392 451 19,700 -1,560 Descending Washington Center
08:50 38.6119 -78.2008 73° East 379 436 18,100 -1,620 Descending Washington Center
08:51 38.6500 -78.0825 68° East 369 425 16,500 -1,620 Descending Washington Center
08:52 38.6878 -77.9667 67° East 357 411 14,900 -1,560 Descending Washington Center
08:53 38.7233 -77.8561 68° East 343 395 13,500 -1,380 Descending Washington Center
08:54 38.7706 -77.7725 54° Northeast 311 358 12,200 -1,380 Descending Washington Center
08:55 38.8264 -77.6808 52° Northeast 299 344 10,800 -1,320 Descending Washington Center
08:56 38.8614 -77.5883 64° Northeast 284 327 9,600 -1,200 Descending Washington Center
08:57 38.9000 -77.4500 70° East 286 329 8,100 -1,200 Descending Potomac TRACON
08:58 38.8833 -77.3667 104° East 290 334 6,900 -1,080 Descending Potomac TRACON
08:59 38.8333 -77.2667 123° Southeast 280 322 6,000 -480 Descending Potomac TRACON
09:00 38.8000 -77.2000 123° Southeast 281 323 6,000 -240 Level Potomac TRACON
09:01 38.7667 -77.1167 117° Southeast 235 270 5,600 -660 Descending Potomac TRACON
09:02 38.7000 -77.1000 169° South 222 255 4,700 -840 Descending Potomac TRACON
09:03 38.6500 -77.1000 180° South 212 244 4,000 -420 Descending Potomac TRACON
09:04 38.6000 -77.1000 180° South 212 244 4,000  Level Potomac TRACON
09:05 38.5667 -77.0500 130° Southeast 220 253 4,000 -300 Level Potomac TRACON
09:06 38.6167 -77.0333 15° North 180 207 3,400 -540 Descending Potomac TRACON
09:07 38.6500 -77.0333 360° North 177 204 3,000 -480 Descending Potomac TRACON